Flag for U.S.A. Weather past 2 weeks in Olympia, Washington, U.S.A.

Now
30 °F

Clear.


Feels Like: 30 °F
Forecast: 30 / 56 °F
Wind: No wind

Location: Olympia Airport

Current Time: Mar 5, 2015 at 12:06:35 AM

Latest Report: Mar 4, 2015 at 10:54 PM


Visibility: 9 mi

Pressure: 30.31 "Hg

Humidity: 85%

Dew point: 26 °F

Location of OlympiaLocation

Historic Weather in Olympia — Graph

°F

Olympia temperature yesterday

Maximum temperature yesterday: 56 °F (at 2:54 PM)
Minimum temperature yesterday: 22 °F (at 6:54 AM)
Average temperature yesterday: 38 °F

Past Weeks' High & Low Weather Summary

 TemperatureHumidityPressure
High57 °F (Feb 23, 3:54 PM)100% (Feb 20, 6:03 AM)30.46 "Hg (Feb 20, 6:03 AM)
Low22 °F (Mar 3, 5:54 AM)24% (Feb 28, 2:54 PM)29.70 "Hg (Feb 27, 6:54 AM)
Average43 °F77%30.22 "Hg
* Reported Feb 17 10:54 PM — Mar 4 10:54 PM, Olympia, Weather by CustomWeather, © 2015

Note: Actual official high and low records may vary slightly from our data, if they occured in-between our weather recording intervals... More about our weather records

Advertising

Olympia weather history for previous 24 hours

 ConditionsComfort  
Time TempWeatherWind HumidityBarometerVisibility
10:54 PM
Wed, Mar 4
30 °FClear.No wind85%30.31 "Hg9 mi
9:54 PM33 °FClear.No wind78%30.31 "Hg10 mi
8:54 PM36 °FClear.No wind73%30.29 "Hg10 mi
7:54 PM39 °FClear.No wind60%30.29 "Hg10 mi
6:54 PM42 °FClear.No wind51%30.28 "Hg10 mi
5:54 PM50 °FSunny.5 mph33%30.27 "Hg10 mi
4:54 PM54 °FSunny.6 mph30%30.27 "Hg10 mi
3:54 PM55 °FSunny.5 mph25%30.28 "Hg10 mi
2:54 PM56 °FSunny.3 mph28%30.27 "Hg10 mi
1:54 PM55 °FSunny.6 mph30%30.28 "Hg10 mi
12:54 PM53 °FSunny.5 mph24%30.29 "Hg10 mi
11:54 AM50 °FSunny.5 mph33%30.31 "Hg10 mi
10:54 AM45 °FSunny.No wind44%30.31 "Hg10 mi
9:54 AM39 °FSunny.No wind70%30.32 "Hg10 mi
8:54 AM34 °FSunny.No wind76%30.32 "Hg10 mi
7:54 AM27 °FSunny.No wind92%30.31 "Hg9 mi
6:54 AM22 °FSunny.No wind89%30.29 "Hg10 mi
5:54 AM24 °FClear.No wind88%30.29 "Hg9 mi
4:54 AM23 °FClear.No wind88%30.28 "Hg10 mi
3:54 AM23 °FClear.No wind92%30.28 "Hg10 mi
2:54 AM25 °FClear.No wind88%30.28 "Hg8 mi
1:54 AM25 °FClear.No wind88%30.28 "Hg9 mi
12:54 AM28 °FClear.3 mph81%30.27 "Hg10 mi
Weather by CustomWeather, © 2015

See weather overviewHow to use our weather pages